Location: Sweet Grass
(48.9965°N, 111.9649°W)
Time: 18:03:41
(UTC+00:00)

DX 1 - Pass Details

Date: 08 April 2023
Orbit: 615 x 625 km, 98.4° (Epoch: 04 June)

Event Time Altitude Azimuth Distance (km) Brightness Sun altitude
Rises 05:42:21 0° 17° (NNE) 2,899 ? -29.2°
Reaches altitude 10° 05:44:34 10° 21° (NNE) 1,990 ? -29.3°
Enters shadow 05:46:21 24° 28° (NNE) 1,296 ? -29.5°
